Location: Asheville, NC
(35.6000°N, 82.5500°W)
Time: 23:33:02
(UTC-04:00)

Vanguard 1 - Pass Details

Date: 10 December 2017
Orbit: 650 x 3833 km, 34.3° (Epoch: 17 June)

Event Time Altitude Azimuth Distance (km) Brightness Sun altitude
Rises 09:12:56 0° 227° (SW) 7,965 14.7 16.2°
Reaches altitude 10° 09:18:44 10° 223° (SW) 6,884 14.5 17.0°
Maximum altitude 09:39:48 54° 154° (SSE) 3,412 13.9 19.8°
Drops below altitude 10° 09:52:55 10° 82° (E) 4,512 13.9 21.5°
Sets 09:55:48 0° 77° (ENE) 5,171 14.1 21.8°
